Malmstrom AFB, MT

3:20 AM MST on December 13, 2017 (GMT -0700)
Malmstrom AFB

Weather History for KGFA - August, 2013

Change the Weather History Date:

Wednesday, August 21, 2013

  Actual Average (KGTF) Record (KGTF)
Temperature  
Mean Temperature 66 °F -  
Max Temperature 81 °F 79 °F 99 °F (1894)
Min Temperature 51 °F 51 °F 38 °F (1992)
Cooling Degree Days 1    
Growing Degree Days 16 (Base 50)    
Moisture  
Dew Point 36 °F    
Average Humidity 33    
Maximum Humidity 57    
Minimum Humidity 18    
Precipitation  
Precipitation 0.00 in - - ()
Sea Level Pressure  
Sea Level Pressure 30.12 in    
Wind  
Wind Speed 5 mph (North)    
Max Wind Speed 13 mph    
Max Gust Speed 20 mph    
Visibility 10 miles    
Events      
Averages and records for this station are not official NWS values.
T = Trace of Precipitation, MM = Missing Value Source: NWS Daily Summary

Daily Weather History Graph

Daily Weather History Graph

Search for Another Location

Airport or City:

Trip Planner

Search our weather history database for the weather conditions in past years. The results will help you decide how hot, cold, wet, or windy it might be!

Date:

Astronomy

Aug. 21, 2013 Rise Set
Actual Time 6:29 AM MDT 8:25 PM MDT
Civil Twilight 5:56 AM MDT 8:58 PM MDT
Nautical Twilight 5:15 AM MDT 9:38 PM MDT
Astronomical Twilight 4:30 AM MDT 10:23 PM MDT
Moon 8:26 PM MDT (8/21) 7:20 AM MDT (8/21)
Length of Visible Light 15h 02m
Length of Day
13h 56m
Full, 99% of the Moon is Illuminated
Aug 21
Full
Aug 28
Last Quarter
Sep 5
New
Sep 12
First Quarter
Sep 19
Full

Hourly Weather History & Observations

Time (MDT) Temp. Dew Point Humidity Pressure Visibility Wind Dir Wind Speed Gust Speed Precip Events Conditions
12:56 AM 69.1 °F 28.0 °F 22% 30.00 in 10.0 mi West 4.6 mph - N/A   Clear
1:56 AM 63.0 °F 30.0 °F 29% 30.03 in 10.0 mi Calm Calm - N/A   Clear
3:56 AM 60.1 °F 34.0 °F 38% 30.07 in 10.0 mi West 6.9 mph - N/A   Clear
4:56 AM 57.9 °F 32.0 °F 37% 30.07 in 10.0 mi Calm Calm - N/A   Clear
5:56 AM 55.0 °F 34.0 °F 45% 30.09 in 10.0 mi SSW 6.9 mph - N/A   Clear
6:56 AM 51.1 °F 34.0 °F 52% 30.14 in 10.0 mi North 12.7 mph 19.6 mph N/A   Clear
7:56 AM 55.0 °F 37.0 °F 51% 30.16 in 10.0 mi NW 5.8 mph - N/A   Clear
8:56 AM 55.9 °F 41.0 °F 57% 30.19 in 10.0 mi Calm Calm - N/A   Clear
10:56 AM 63.0 °F 42.1 °F 46% 30.19 in 10.0 mi Calm Calm - N/A   Clear
11:56 AM 68.0 °F 42.1 °F 39% 30.21 in 10.0 mi WNW 5.8 mph - N/A   Clear
12:56 PM 73.0 °F 39.9 °F 30% 30.16 in 10.0 mi Variable 6.9 mph - N/A   Clear
1:56 PM 75.9 °F 36.0 °F 23% 30.15 in 10.0 mi NNE 4.6 mph - N/A   Clear
2:56 PM 78.1 °F 35.1 °F 21% 30.15 in 10.0 mi NNE 5.8 mph - N/A   Clear
3:56 PM 79.0 °F 35.1 °F 20% 30.12 in 10.0 mi NW 5.8 mph - N/A   Clear
4:56 PM 81.0 °F 33.1 °F 18% 30.09 in 10.0 mi NNE 6.9 mph - N/A   Clear
5:56 PM 81.0 °F 33.1 °F 18% 30.09 in 10.0 mi NNE 9.2 mph - N/A   Clear
6:56 PM 80.1 °F 35.1 °F 20% 30.09 in 10.0 mi NE 10.4 mph - N/A   Clear
7:56 PM 73.9 °F 37.0 °F 26% 30.09 in 10.0 mi NE 9.2 mph - N/A   Clear
8:56 PM 69.1 °F 37.0 °F 31% 30.12 in 10.0 mi North 9.2 mph - N/A   Clear
9:56 PM 68.0 °F 37.0 °F 32% 30.12 in 10.0 mi North 5.8 mph - N/A   Clear
10:56 PM 64.0 °F 37.0 °F 37% 30.12 in 10.0 mi Calm Calm - N/A   Clear
11:56 PM 63.0 °F 36.0 °F 37% 30.11 in 10.0 mi ENE 4.6 mph - N/A   Clear